Date,TemperatureHighF,TemperatureAvgF,TemperatureLowF,DewpointHighF,DewpointAvgF,DewpointLowF,HumidityHigh,HumidityAvg,HumidityLow,PressureMaxIn,PressureMinIn,WindSpeedMaxMPH,WindSpeedAvgMPH,GustSpeedMaxMPH,PrecipitationSumIn
2013-1-1,39.0,27.5,19.0,24.0,15.2,14.0,82,62,34,29.59,29.02,12,4,32,0.00
2013-1-2,35.0,31.2,19.0,26.0,20.6,14.0,90,65,51,29.44,29.01,16,12,44,0.00
2013-1-3,35.0,33.0,25.0,19.0,14.7,11.0,61,46,36,29.50,29.43,18,11,39,0.00
2013-1-4,33.0,26.0,14.0,20.0,15.2,7.0,76,63,55,29.67,29.48,12,7,35,0.00
2013-1-5,32.0,15.3,10.0,20.0,7.7,4.0,78,71,55,29.65,29.23,7,3,22,0.00
2013-1-6,34.0,18.4,10.0,18.0,9.4,4.0,83,68,43,29.26,29.07,9,4,27,0.00
2013-1-7,33.0,15.7,5.0,17.0,8.4,-1.0,83,73,48,29.29,28.97,9,4,25,0.00
2013-1-8,8.0,5.5,2.0,5.0,0.6,-4.0,86,80,71,29.91,29.29,5,2,9,0.00
2013-1-9,8.0,-1.6,-9.0,2.0,-7.9,-16.0,81,74,59,29.98,29.72,4,1,8,0.00
2013-1-10,26.0,15.1,-1.0,13.0,6.2,-6.0,82,68,48,29.91,29.65,17,6,37,0.00
2013-1-11,31.0,21.0,12.0,16.0,9.9,5.0,78,62,43,30.02,29.67,15,7,36,0.00
2013-1-12,38.0,24.0,6.0,26.0,15.7,1.0,84,70,58,30.03,29.57,19,11,51,0.00
2013-1-13,41.0,39.0,37.0,33.0,29.5,24.0,81,68,57,29.63,29.39,19,12,49,0.00
2013-1-14,42.0,37.5,32.0,34.0,31.9,30.0,97,81,61,29.66,29.17,26,12,54,0.00
2013-1-15,32.0,15.5,6.0,31.0,12.8,2.0,95,88,81,30.09,29.66,11,4,28,0.00
2013-1-16,9.0,3.5,-3.0,6.0,-0.9,-8.0,85,81,75,30.06,29.63,3,1,6,0.00
2013-1-17,9.0,5.4,-2.0,5.0,1.0,-8.0,85,81,76,29.91,29.59,6,3,11,0.00
2013-1-18,-2.0,-9.6,-17.0,-8.0,-16.1,-24.0,77,72,68,30.20,29.90,6,2,9,0.00
2013-1-19,-4.0,-8.4,-16.0,-10.0,-14.9,-23.0,76,72,68,30.22,29.90,3,1,9,0.00
2013-1-20,7.0,2.4,-5.0,2.0,-2.7,-10.0,82,78,73,29.91,29.82,10,4,18,0.00
2013-1-21,7.0,4.0,2.0,3.0,0.1,-2.0,86,83,79,29.93,29.80,4,2,7,0.00
2013-1-22,9.0,1.1,-2.0,4.0,-3.2,-6.0,84,81,76,29.80,29.52,1,0,2,0.00
2013-1-23,12.0,8.0,1.0,8.0,4.6,-3.0,89,85,78,29.52,29.38,2,1,5,0.00
2013-1-24,8.0,0.5,-8.0,4.0,-4.5,-13.0,84,79,74,29.58,29.41,5,3,9,0.00
2013-1-25,-7.0,-12.3,-23.0,-13.0,-18.5,-30.0,76,73,69,29.75,29.58,5,2,9,0.00
2013-1-26,-13.0,-24.5,-29.0,-25.0,-31.6,-36.0,72,68,54,29.85,29.75,2,1,7,0.00
2013-1-27,-21.0,-27.4,-35.0,-30.0,-34.7,-42.0,69,66,58,30.29,29.85,4,1,7,0.00
2013-1-28,-20.0,-31.5,-39.0,-30.0,-38.9,-46.0,69,65,53,30.33,29.84,4,1,7,0.00
2013-1-29,-12.0,-15.8,-24.0,-18.0,-22.3,-30.0,73,71,68,29.85,29.67,6,2,10,0.00
2013-1-30,-2.0,-7.2,-13.0,-7.0,-12.7,-19.0,79,76,72,29.74,29.52,10,6,19,0.00
2013-1-31,12.0,6.4,-1.0,10.0,2.5,-5.0,89,83,78,29.91,29.58,7,2,14,0.00
2013-2-1,14.0,10.7,5.0,12.0,8.1,2.0,90,89,85,29.98,29.71,4,1,7,0.00
2013-2-2,20.0,11.0,3.0,15.0,7.5,-1.0,90,85,79,29.72,29.36,6,2,12,0.00
2013-2-3,20.0,13.5,9.0,17.0,9.7,4.0,90,84,80,29.36,29.17,5,1,13,0.00
2013-2-4,33.0,27.7,14.0,24.0,20.1,11.0,89,73,63,29.48,29.27,12,8,31,0.00
2013-2-5,30.0,18.3,6.0,20.0,12.1,2.0,87,76,66,29.47,29.44,6,3,20,0.00
2013-3-6,35.0,25.6,16.0,16.0,11.1,7.0,68,54,40,29.77,29.70,7,3,13,0.00
2013-3-7,42.0,30.9,9.0,20.0,13.2,3.0,78,49,30,29.71,29.26,30,12,54,0.00
2013-3-8,39.0,37.7,36.0,31.0,20.9,13.0,82,50,32,29.52,29.35,19,13,45,0.00
2013-3-9,37.0,32.5,27.0,21.0,16.6,14.0,63,51,43,29.87,29.51,15,8,37,0.00
2013-3-10,34.0,26.5,22.0,22.0,17.8,12.0,90,69,50,30.13,29.87,7,3,13,0.00
2013-3-11,24.0,19.6,15.0,17.0,13.1,10.0,87,75,59,30.37,30.13,9,3,15,0.00
2013-3-12,19.0,9.9,-1.0,11.0,2.6,-8.0,83,72,54,30.38,30.16,11,3,17,0.00
2013-3-13,15.0,1.7,-8.0,-3.0,-8.2,-15.0,75,63,37,30.16,29.92,11,3,18,0.00
2013-3-14,13.0,-3.6,-16.0,-7.0,-15.3,-23.0,72,58,36,29.96,29.90,3,2,5,0.00
2013-3-15,14.0,-2.5,-15.0,-8.0,-15.0,-22.0,71,56,34,29.94,29.75,5,2,9,0.00
2013-3-16,21.0,2.5,-10.0,2.0,-10.1,-17.0,70,56,37,29.98,29.77,8,2,17,0.00
2013-3-17,21.0,5.3,-7.0,4.0,-6.4,-13.0,73,58,40,30.09,29.97,7,2,14,0.00
2013-3-18,19.0,6.8,-4.0,7.0,-2.5,-11.0,78,65,46,29.97,29.81,7,2,11,0.00
2013-3-19,13.0,4.3,-2.0,0.0,-4.3,-11.0,77,67,50,29.90,29.84,8,3,14,0.00
2013-3-20,16.0,2.8,-8.0,-2.0,-8.8,-14.0,76,59,34,29.86,29.73,4,2,9,0.00
2013-3-21,19.0,6.5,-7.0,-4.0,-9.7,-16.0,64,47,33,29.94,29.78,17,7,33,0.00
2013-3-22,26.0,19.5,13.0,21.0,9.3,-4.0,91,64,44,29.84,29.55,18,14,44,0.00
2013-3-23,24.0,6.3,-8.0,22.0,0.9,-15.0,93,77,63,29.86,29.52,13,6,34,0.00
2013-3-24,14.0,3.8,-9.0,6.0,-3.0,-15.0,83,73,58,29.84,29.55,6,2,11,0.00
2013-3-25,10.0,5.3,1.0,3.0,-1.1,-6.0,83,74,62,29.57,29.41,8,4,14,0.00
2013-3-26,6.0,-1.2,-11.0,-6.0,-11.0,-18.0,76,63,43,29.97,29.57,5,2,11,0.00
2013-3-27,17.0,-1.8,-17.0,-1.0,-12.8,-24.0,73,60,39,30.02,29.93,8,2,18,0.00
2013-3-28,28.0,21.0,10.0,15.0,7.7,-3.0,64,56,48,29.93,29.73,17,12,42,0.00
2013-3-29,35.0,30.3,26.0,24.0,19.5,15.0,71,63,50,29.77,29.70,15,12,38,0.00
2013-3-30,41.0,32.0,22.0,22.0,18.4,-99.9,75,59,39,30.05,29.77,6,3,17,0.00
2013-3-31,41.0,31.6,24.0,24.0,20.6,17.0,80,64,43,30.09,29.99,5,2,10,0.00
2013-4-1,31.0,27.9,24.0,25.0,23.0,21.0,91,82,67,29.99,29.88,8,3,13,0.00
2013-4-2,37.0,28.5,24.0,23.0,17.3,11.0,86,64,34,30.02,29.91,7,2,17,0.00
2013-4-3,37.0,24.6,13.0,15.0,11.4,7.0,77,58,36,30.22,30.02,8,3,19,0.00
2013-4-4,27.0,14.5,1.0,8.0,-1.6,-8.0,66,50,27,30.24,29.86,8,2,14,0.00
2013-4-5,23.0,8.5,-4.0,-1.0,-7.1,-13.0,65,49,29,29.86,29.49,6,3,12,0.00
2013-4-6,21.0,6.5,-7.0,0.0,-7.7,-16.0,66,52,37,29.49,29.35,7,3,14,0.00
2013-4-7,5.0,3.1,0.0,0.0,-4.3,-11.0,81,70,55,29.71,29.42,8,3,13,0.00
2013-4-8,8.0,5.1,0.0,2.0,0.0,-5.0,81,79,75,29.72,29.28,5,2,9,0.00
2013-4-9,9.0,6.4,4.0,3.0,0.6,-1.0,82,77,68,29.28,28.96,7,3,12,0.00
2013-4-10,14.0,4.5,-5.0,2.0,-4.9,-12.0,82,65,45,29.76,29.26,5,2,11,0.00
2013-4-11,16.0,3.1,-11.0,-2.0,-8.4,-18.0,73,59,39,30.04,29.76,5,2,9,0.00
2013-4-12,19.0,6.3,-9.0,0.0,-6.6,-15.0,75,56,39,30.17,30.04,4,2,8,0.00
2013-4-13,25.0,10.2,-8.0,5.0,-3.8,-15.0,73,54,34,30.32,30.17,4,2,9,0.00
2013-4-14,30.0,15.9,0.0,6.0,-0.3,-7.0,71,50,31,30.40,30.31,5,2,7,0.00
2013-4-15,30.0,21.2,14.0,16.0,8.4,4.0,70,58,41,30.33,30.26,5,2,11,0.00
2013-4-16,24.0,16.2,8.0,15.0,9.2,1.0,83,73,63,30.26,30.07,6,2,9,0.00
2013-4-17,25.0,18.8,12.0,14.0,10.1,6.0,86,69,54,30.19,30.06,10,4,17,0.00
2013-4-18,31.0,21.7,16.0,9.0,6.6,3.0,62,51,37,30.22,30.16,9,4,15,0.00
2013-4-19,36.0,18.8,2.0,13.0,3.5,-5.0,71,52,30,30.31,30.22,12,3,19,0.00
2013-4-20,38.0,25.3,8.0,12.0,6.4,-1.0,66,45,30,30.28,30.17,10,5,25,0.00
2013-4-21,40.0,30.6,20.0,14.0,8.8,4.0,51,40,32,30.26,30.21,8,5,19,0.00
2013-4-22,43.0,32.3,20.0,21.0,13.9,6.0,56,46,37,30.34,30.26,10,6,26,0.00
2013-4-23,44.0,38.9,33.0,27.0,22.7,14.0,63,52,41,30.30,30.09,13,8,29,0.00
2013-4-24,36.0,31.7,27.0,28.0,25.2,20.0,92,77,54,30.09,29.84,15,6,28,0.00
2013-4-25,28.0,24.1,20.0,25.0,10.0,0.0,91,56,37,29.90,29.82,16,8,30,0.00
2013-4-26,32.0,21.5,8.0,19.0,5.7,-1.0,77,52,30,29.86,29.47,7,3,16,0.00
2013-4-27,28.0,23.7,18.0,19.0,12.5,1.0,85,64,37,29.95,29.51,14,6,28,0.00
2013-4-28,32.0,19.9,5.0,14.0,2.5,-6.0,62,46,30,30.02,29.95,12,4,22,0.00
2013-4-29,32.0,25.3,17.0,15.0,9.3,4.0,67,50,35,30.03,29.96,8,4,19,0.00
2013-4-30,35.0,28.9,22.0,18.0,14.3,12.0,67,54,43,29.96,29.70,9,5,18,0.00
2013-5-1,42.0,31.2,22.0,23.0,17.7,13.0,73,58,34,29.70,29.48,10,4,17,0.00
2013-5-2,33.0,28.6,23.0,28.0,20.0,15.0,92,70,57,29.77,29.52,6,4,12,0.00
2013-5-3,42.0,34.7,27.0,34.0,29.4,25.0,94,81,68,29.79,29.65,13,7,30,0.00
2013-5-4,29.0,26.6,25.0,25.0,21.7,20.0,92,81,74,29.86,29.73,8,4,15,0.00
2013-5-5,41.0,31.6,22.0,23.0,18.6,14.0,89,61,36,30.01,29.86,4,2,10,0.00
2013-5-6,42.0,31.8,20.0,21.0,14.7,11.0,70,50,32,30.09,30.00,8,3,16,0.00
2013-5-7,46.0,35.6,24.0,20.0,16.5,15.0,66,47,29,30.14,30.09,7,3,16,0.00
2013-5-8,49.0,37.0,23.0,20.0,14.6,10.0,66,42,20,30.23,30.13,6,4,17,0.00
2013-5-9,53.0,40.5,26.0,25.0,18.4,13.0,62,42,26,30.25,30.10,12,6,29,0.00
2013-5-10,58.0,46.6,36.0,30.0,24.9,-99.9,70,46,29,30.12,29.86,5,3,14,0.00
2013-5-11,53.0,45.9,38.0,32.0,27.4,-99.9,68,50,30,29.86,29.57,7,3,13,0.00
2013-5-12,47.0,41.7,37.0,36.0,33.0,29.0,92,71,52,29.59,29.39,7,3,14,0.00
2013-5-13,39.0,28.6,20.0,33.0,18.9,13.0,88,67,40,29.53,29.39,12,4,21,0.00
2013-5-14,39.0,30.8,23.0,20.0,14.8,10.0,69,51,38,29.52,29.49,5,2,11,0.00
2013-5-15,44.0,35.7,27.0,27.0,21.8,16.0,73,57,45,29.57,29.52,13,7,35,0.00
2013-5-16,43.0,35.7,33.0,31.0,13.1,-99.9,74,62,53,29.57,29.32,17,11,41,0.00
2013-5-17,40.0,34.0,26.0,32.0,27.0,-99.9,96,84,64,29.51,29.25,12,6,33,0.00
2013-5-18,30.0,23.3,19.0,23.0,15.9,10.0,90,74,48,30.07,29.51,10,6,20,0.00
2013-5-19,36.0,27.6,12.0,17.0,12.9,9.0,84,56,35,30.48,30.07,7,3,14,0.00
2013-5-20,44.0,32.4,19.0,16.0,12.0,8.0,68,44,26,30.53,30.34,9,6,24,0.00
2013-5-21,50.0,40.4,30.0,21.0,13.5,9.0,48,33,24,30.34,30.07,9,6,22,0.00
2013-5-22,57.0,47.3,36.0,23.0,19.0,15.0,49,32,25,30.07,29.90,9,6,24,0.00
2013-5-23,61.0,49.7,36.0,37.0,29.2,22.0,59,45,35,30.04,29.94,6,3,18,0.00
2013-5-24,63.0,52.4,40.0,39.0,35.3,30.0,80,54,33,30.06,29.91,9,3,15,0.00
2013-5-25,63.0,54.2,41.0,34.0,31.6,29.0,66,43,31,29.91,29.78,11,6,26,0.00
2013-5-26,66.0,56.1,45.0,35.0,32.7,30.0,56,41,30,29.81,29.75,9,6,24,0.00
2013-5-27,70.0,60.4,47.0,37.0,34.4,31.0,59,38,26,29.80,29.72,13,7,26,0.00
2013-5-28,79.0,60.8,45.0,40.0,33.6,29.0,57,37,20,29.74,29.63,6,4,16,0.00
2013-5-29,78.0,62.7,50.0,40.0,37.2,35.0,59,40,21,29.68,29.61,12,5,23,0.00
2013-5-30,73.0,60.3,49.0,38.0,36.2,35.0,58,41,27,29.77,29.68,9,6,21,0.00
2013-6-3,58.0,52.5,49.0,47.0,44.1,39.0,89,74,54,29.81,29.59,8,5,19,0.00
2013-6-4,55.0,48.9,43.0,40.0,36.5,34.0,87,63,44,29.59,29.49,11,8,32,0.00
2013-6-5,58.0,51.5,45.0,35.0,32.1,30.0,64,48,35,29.80,29.56,12,8,32,0.00
2013-6-6,67.0,54.6,42.0,42.0,32.8,29.0,61,44,28,29.82,29.68,10,4,18,0.00
2013-6-7,68.0,57.1,47.0,43.0,40.5,38.0,75,55,32,29.85,29.73,6,2,20,0.00
2013-6-8,65.0,55.6,47.0,48.0,43.6,39.0,79,64,48,30.07,29.85,6,2,19,0.00
2013-6-9,71.0,58.6,48.0,51.0,42.4,38.0,82,57,33,30.17,30.07,10,3,19,0.00
2013-6-10,56.0,52.5,49.0,51.0,46.0,41.0,91,78,57,30.20,30.15,8,3,15,0.00
2013-6-11,66.0,55.8,47.0,44.0,38.8,33.0,85,55,30,30.20,30.04,8,3,19,0.00
2013-6-12,68.0,56.1,42.0,40.0,34.4,27.0,77,47,22,30.05,29.96,9,4,19,0.00
2013-6-13,74.0,59.6,42.0,42.0,34.3,30.0,71,42,22,30.04,30.00,6,2,19,0.00
2013-6-14,82.0,66.3,49.0,44.0,36.3,33.0,59,36,18,30.14,30.02,5,2,14,0.00
2013-6-15,85.0,69.8,52.0,44.0,38.1,36.0,58,33,19,30.20,30.12,6,4,17,0.00
2013-6-16,85.0,72.2,56.0,54.0,43.4,38.0,55,36,23,30.20,30.10,11,5,23,0.00
2013-6-17,86.0,74.5,59.0,53.0,43.9,32.0,72,38,14,30.14,30.02,9,4,19,0.00
2013-6-18,81.0,67.8,49.0,42.0,39.3,36.0,62,37,21,30.04,29.84,3,-686,6,0.00
2013-6-19,79.0,69.3,53.0,41.0,38.6,36.0,55,33,22,29.86,29.78,0,-999,0,0.00
2013-6-20,80.0,65.7,59.0,42.0,38.5,36.0,45,37,23,29.87,29.75,5,-987,14,0.00
2013-6-21,71.0,68.8,67.0,54.0,52.5,52.0,62,56,50,29.85,29.82,0,-999,0,0.00
2013-6-22,75.0,66.5,52.0,41.0,37.8,33.0,63,35,26,29.84,29.64,9,-985,22,0.00
2013-6-23,82.0,67.1,51.0,47.0,38.3,35.0,57,36,20,29.66,29.52,3,-990,6,0.00
2013-6-24,68.0,60.7,57.0,48.0,45.1,43.0,63,56,45,29.60,29.55,0,-999,0,0.00
2013-6-25,91.0,85.8,75.0,54.0,49.7,47.0,44,29,23,29.58,29.53,0,-999,0,0.00
2013-6-26,91.0,75.9,60.0,56.0,51.4,48.0,68,44,23,29.68,29.61,5,-989,13,0.00
2013-6-27,81.0,71.8,63.0,59.0,54.4,48.0,66,54,43,29.94,29.69,2,-988,5,0.00
2013-6-28,71.0,65.9,61.0,60.0,55.7,54.0,86,70,58,30.02,29.94,0,-999,0,0.00
2013-6-29,76.0,66.2,58.0,60.0,56.5,54.0,100,73,47,29.98,29.86,1,-988,2,0.00
2013-6-30,75.0,68.1,61.0,55.0,50.1,39.0,74,53,36,29.87,29.60,11,-988,30,0.00
2013-7-1,72.0,64.0,58.0,44.0,39.2,35.0,49,40,27,29.61,29.41,0,-999,0,0.00
2013-7-3,65.0,57.3,50.0,40.0,37.5,36.0,61,48,36,29.83,29.68,0,-999,0,0.00
2013-7-4,60.0,54.8,51.0,43.0,39.1,36.0,65,55,45,29.92,29.82,9,-978,25,0.00
2013-7-5,63.0,55.1,47.0,44.0,40.5,38.0,81,59,41,29.98,29.89,8,-967,23,0.00
2013-7-6,67.0,57.4,51.0,44.0,41.3,39.0,68,55,40,29.90,29.70,9,-985,23,0.00
2013-7-7,64.0,58.3,55.0,45.0,41.0,38.0,62,52,46,29.70,29.47,9,-968,27,0.00
2013-7-8,56.0,51.7,48.0,52.0,45.6,40.0,97,80,55,29.68,29.50,6,-974,14,0.00
2013-7-9,60.0,52.7,48.0,54.0,48.5,46.0,99,86,65,29.93,29.68,2,-989,7,0.00
2013-7-10,56.0,51.1,48.0,53.0,49.7,48.0,100,94,81,29.98,29.92,0,-999,0,0.00
2013-7-11,69.0,55.9,47.0,54.0,49.1,47.0,99,79,52,30.00,29.96,6,-988,11,0.00
2013-7-12,76.0,61.3,46.0,53.0,44.7,31.0,92,61,18,29.98,29.91,2,-988,2,0.00
2013-7-13,82.0,66.0,50.0,51.0,41.9,38.0,66,44,23,29.98,29.92,3,-990,7,0.00
2013-7-14,81.0,69.6,57.0,58.0,47.8,42.0,58,46,32,30.09,29.98,2,-989,6,0.00
2013-7-15,80.0,69.8,60.0,55.0,50.3,47.0,66,50,36,30.15,30.04,4,-988,11,0.00
2013-7-16,73.0,63.8,60.0,54.0,51.9,49.0,77,65,48,30.10,30.05,11,-356,19,0.00
2013-7-17,59.0,56.4,55.0,55.0,53.7,52.0,98,90,77,30.07,30.04,4,2,7,0.00
2013-7-18,73.0,67.6,60.0,57.0,53.2,50.0,89,61,45,30.04,29.95,8,5,20,0.00
2013-7-19,65.0,57.9,55.0,59.0,56.1,53.0,100,94,65,30.07,29.98,5,2,11,0.00
2013-7-20,62.0,55.0,52.0,55.0,48.2,-99.9,100,82,58,30.07,30.03,11,4,21,0.00
2013-7-21,61.0,55.8,51.0,54.0,48.7,45.0,92,77,57,30.11,30.05,8,3,15,0.00
2013-7-22,75.0,61.1,48.0,56.0,49.1,45.0,90,67,40,30.15,30.05,4,2,13,0.00
2013-7-23,77.0,64.8,52.0,56.0,51.1,48.0,85,63,42,30.10,30.00,4,2,9,0.00
2013-7-24,70.0,63.4,57.0,61.0,54.5,49.0,93,73,58,30.01,29.93,6,2,14,0.00
2013-7-25,64.0,58.5,54.0,58.0,55.7,51.0,100,90,67,30.03,29.94,5,2,10,0.00
2013-7-26,74.0,61.4,49.0,56.0,49.7,47.0,94,69,39,30.17,30.03,7,2,13,0.00
2013-7-27,73.0,64.1,56.0,64.0,54.2,47.0,90,70,49,30.22,30.16,5,3,11,0.00
2013-7-28,84.0,70.4,58.0,59.0,53.1,49.0,86,57,32,30.22,30.04,6,3,13,0.00
2013-7-29,74.0,66.6,56.0,63.0,54.9,48.0,82,66,49,30.11,30.06,11,3,19,0.00
2013-7-30,78.0,66.8,57.0,61.0,56.3,53.0,87,70,48,30.14,30.08,8,3,16,0.00
2013-7-31,79.0,65.1,52.0,59.0,53.5,49.0,89,68,38,30.13,30.01,6,2,15,0.00
2013-8-1,81.0,68.6,53.0,55.0,50.5,48.0,85,56,33,30.01,29.81,8,4,15,0.00
2013-8-2,80.0,70.8,62.0,48.0,38.6,31.0,56,32,20,29.81,29.71,11,7,28,0.00
2013-8-3,73.0,66.7,61.0,44.0,38.3,29.0,52,35,22,29.70,29.64,22,12,45,0.00
2013-8-4,68.0,61.4,56.0,46.0,44.2,43.0,66,53,41,29.83,29.71,12,9,31,0.00
2013-8-5,69.0,60.4,48.0,51.0,45.6,43.0,89,60,40,29.88,29.82,12,6,27,0.00
2013-8-6,76.0,66.5,55.0,45.0,41.5,39.0,68,41,27,29.89,29.78,11,8,30,0.00
2013-8-7,77.0,67.6,57.0,42.0,38.6,33.0,52,36,21,29.78,29.61,12,8,30,0.00
2013-8-8,74.0,66.2,59.0,43.0,39.0,32.0,47,37,28,29.65,29.60,12,9,31,0.00
2013-8-9,64.0,58.6,55.0,45.0,42.0,39.0,65,54,43,29.67,29.60,17,13,41,0.00
2013-8-10,61.0,57.3,54.0,49.0,44.7,41.0,71,62,54,29.93,29.66,13,10,33,0.00
2013-8-11,74.0,62.0,52.0,51.0,47.4,43.0,80,60,42,29.98,29.87,12,4,22,0.00
2013-8-12,76.0,61.1,50.0,55.0,49.5,44.0,80,66,42,30.00,29.92,5,2,11,0.00
2013-8-13,78.0,61.5,47.0,57.0,49.9,-99.9,92,70,45,29.96,29.78,7,2,14,0.00
2013-8-14,69.0,61.1,54.0,54.0,44.9,-99.9,83,61,48,29.85,29.78,9,4,17,0.00
2013-8-15,70.0,54.4,49.0,52.0,35.3,-99.9,85,65,51,29.82,29.64,6,2,11,0.00
2013-8-16,71.0,58.2,48.0,53.0,46.0,-99.9,96,71,42,29.66,29.55,6,-9,14,0.00
2013-8-17,77.0,59.0,45.0,57.0,45.8,-99.9,97,66,34,29.58,29.42,9,3,16,0.00
2013-8-18,60.0,55.2,52.0,56.0,53.4,51.0,100,93,78,29.52,29.42,5,-10,10,0.00
2013-8-19,63.0,51.3,51.0,52.0,39.1,-99.9,97,82,58,29.58,29.52,11,3,22,0.00
2013-8-20,55.0,50.7,45.0,48.0,42.7,-99.9,97,77,67,29.73,29.57,13,7,30,0.00
2013-8-21,58.0,49.9,44.0,44.0,41.7,41.0,96,74,54,29.74,29.63,11,6,25,0.00
2013-8-22,62.0,54.2,48.0,47.0,43.5,41.0,84,67,53,29.64,29.52,11,7,28,0.00
2013-8-23,56.0,51.0,48.0,51.0,48.6,45.0,99,91,76,29.54,29.46,7,-9,14,0.00
2013-8-24,56.0,47.8,39.0,46.0,39.1,-99.9,100,76,49,29.82,29.54,9,5,18,0.00
2013-8-25,60.0,44.2,31.0,42.0,33.9,29.0,90,70,41,29.83,29.66,7,-19,13,0.00
2013-8-26,66.0,48.8,33.0,43.0,36.2,30.0,89,65,31,29.73,29.67,8,-8,17,0.00
2013-8-27,54.0,43.7,39.0,42.0,36.6,34.0,83,76,62,29.73,29.70,5,2,10,0.00
2013-8-28,53.0,49.3,46.0,49.0,46.2,44.0,96,89,77,29.66,29.59,8,-16,15,0.00
2013-8-29,63.0,50.9,43.0,48.0,45.8,42.0,99,84,47,29.77,29.56,8,4,20,0.00
2013-8-30,50.0,47.7,44.0,48.0,46.0,43.0,97,94,87,29.90,29.77,5,-10,10,0.00
2013-8-31,44.0,41.6,40.0,43.0,38.5,-99.9,97,92,82,29.89,29.82,6,-43,11,0.00
2013-9-1,54.0,45.5,37.0,49.0,40.9,36.0,97,84,65,29.82,29.57,11,-8,26,0.00
2013-9-2,59.0,54.5,49.0,46.0,44.5,42.0,77,69,58,29.57,29.37,16,2,46,0.00
2013-9-3,64.0,56.3,52.0,45.0,43.1,41.0,70,61,44,29.38,29.18,21,3,49,0.00
2013-9-4,58.0,52.7,48.0,44.0,40.8,37.0,78,63,54,29.60,29.26,14,-1,36,0.00
2013-9-5,58.0,50.3,42.0,41.0,38.3,36.0,89,64,47,29.89,29.60,13,-14,37,0.00
2013-9-6,53.0,47.8,43.0,47.0,40.6,35.0,95,77,58,29.91,29.38,13,-6,35,0.00
2013-9-7,61.0,54.3,49.0,48.0,40.5,-99.9,90,61,47,29.56,29.39,15,8,32,0.00
2013-9-8,52.0,48.4,42.0,50.0,46.9,40.0,100,94,89,29.72,29.36,4,2,11,0.00
2013-9-9,56.0,50.2,41.0,42.0,37.4,36.0,95,62,48,29.74,29.62,14,10,37,0.00
2013-9-10,56.0,53.1,50.0,42.0,39.8,37.0,67,60,52,29.65,29.60,16,12,39,0.00
2013-11-15,19.0,14.5,11.0,13.0,9.3,7.0,86,79,69,29.98,29.83,0,-999,0,0.00
2013-11-16,15.0,12.7,8.0,11.0,7.9,4.0,85,80,70,30.13,29.87,0,-999,0,0.00
2013-11-17,8.0,3.4,-2.0,4.0,-2.1,-8.0,83,77,73,30.22,30.14,0,-999,0,0.00
2013-11-18,4.0,-0.7,-6.0,-2.0,-6.5,-13.0,80,75,70,30.13,29.98,0,-999,0,0.00
2013-11-19,-3.0,-10.1,-21.0,-11.0,-17.5,-28.0,74,69,56,29.98,29.86,0,-999,0,0.00
2013-11-20,-11.0,-23.2,-30.0,-24.0,-30.8,-37.0,70,66,49,30.10,29.90,0,-999,0,0.00
2013-11-21,-11.0,-24.7,-32.0,-18.0,-31.7,-39.0,73,68,65,30.05,29.41,0,-999,0,0.00
2013-11-22,38.0,6.1,-11.0,31.0,1.2,-17.0,85,79,65,29.38,29.04,0,-999,0,0.00
2013-11-25,32.0,12.4,3.0,20.0,6.7,-2.0,85,77,59,29.89,29.72,0,-999,0,0.00
2013-11-26,11.0,6.3,3.0,6.0,1.3,-2.0,82,79,77,29.84,29.74,0,-999,0,0.00
2013-11-27,9.0,6.6,2.0,5.0,2.1,-3.0,86,81,77,29.83,29.65,0,-999,0,0.00
2013-11-28,5.0,0.1,-11.0,0.0,-5.5,-18.0,82,76,69,29.84,29.65,0,-999,0,0.00
2013-11-29,-4.0,-11.0,-15.0,-13.0,-17.7,-22.0,77,71,60,30.10,29.86,0,-999,0,0.00
2013-11-30,-8.0,-14.1,-20.0,-14.0,-20.7,-26.0,76,70,58,30.47,30.10,0,-999,0,0.00
2013-12-1,-3.0,-15.0,-20.0,-11.0,-21.2,-27.0,78,73,64,30.52,30.47,0,-999,0,0.00
2013-12-6,37.0,30.4,13.0,28.0,22.5,8.0,81,72,60,30.34,30.25,0,-999,0,0.00
2013-12-7,36.0,34.2,32.0,29.0,26.7,24.0,77,74,69,30.28,30.17,0,-999,0,0.00
2013-12-8,37.0,33.8,31.0,29.0,26.2,22.0,78,73,70,30.25,30.07,0,-999,0,0.00
2013-12-9,31.0,25.1,17.0,23.0,18.1,11.0,77,74,70,30.13,29.99,0,-999,0,0.00
2013-12-10,19.0,14.2,5.0,15.0,9.8,-1.0,91,82,73,30.11,29.98,0,-999,0,0.00
2013-12-11,3.0,-2.1,-6.0,-2.0,-8.4,-11.0,80,74,68,30.08,29.75,0,-999,0,0.00
2013-12-12,2.0,-0.9,-8.0,-5.0,-8.1,-15.0,74,70,66,29.75,29.56,0,-999,0,0.00
2013-12-13,1.0,-3.7,-13.0,-5.0,-10.0,-19.0,77,74,70,29.57,29.05,0,-999,0,0.00
2013-12-14,1.0,-1.7,-5.0,-4.0,-7.1,-11.0,82,77,74,29.13,28.93,0,-999,0,0.00
2013-12-15,-5.0,-8.9,-16.0,-10.0,-15.2,-23.0,76,72,68,29.93,29.14,0,-999,0,0.00
2013-12-16,-16.0,-21.4,-27.0,-22.0,-28.4,-34.0,71,68,61,30.09,29.95,0,-999,0,0.00